Satellite: ISS
Catalog number: 25544
Epoch time:      09029.86526398
Element set:     168
Inclination:      051.6437 deg
RA of node:       295.1098 deg
Eccentricity:    0.0007772
Arg of perigee:   326.4280 deg
Mean anomaly:     151.2455 deg
Mean motion:   15.70670522 rev/day
Decay rate:     1.0756e-04 rev/day^2
Epoch rev:           58419
Checksum:              321

Satellite: CO-58
Catalog number: 28895
Epoch time:      09028.71123364
Element set:     219
Inclination:      098.0807 deg
RA of node:       283.0965 deg
Eccentricity:    0.0018882
Arg of perigee:   066.9374 deg
Mean anomaly:     293.3849 deg
Mean motion:   14.59736544 rev/day
Decay rate:        4.2e-07 rev/day^2
Epoch rev:           17338
Checksum:              355

Satellite: FALCON
Catalog number: 30776
Epoch time:      09029.81568922
Element set:     492
Inclination:      035.4330 deg
RA of node:       218.8801 deg
Eccentricity:    0.0000571
Arg of perigee:   275.8146 deg
Mean anomaly:     084.2505 deg
Mean motion:   15.03156647 rev/day
Decay rate:       2.37e-06 rev/day^2
Epoch rev:           10426
Checksum:              287

Satellite: MAST
Catalog number: 31126
Epoch time:      09028.63185913
Element set:    0516
Inclination:      098.0090 deg
RA of node:       089.6949 deg
Eccentricity:    0.0094812
Arg of perigee:   353.6056 deg
Mean anomaly:     006.3924 deg
Mean motion:   14.53474363 rev/day
Decay rate:        1.0e-07 rev/day^2
Epoch rev:           09476
Checksum:              304

Satellite: CAPE1
Catalog number: 31130
Epoch time:      09029.63488202
Element set:     515
Inclination:      098.0115 deg
RA of node:       089.1483 deg
Eccentricity:    0.0103079
Arg of perigee:   355.0362 deg
Mean anomaly:     004.9808 deg
Mean motion:   14.52029713 rev/day
Decay rate:       1.31e-06 rev/day^2
Epoch rev:            9458
Checksum:              277

Satellite: COMPASS
Catalog number: 32787
Epoch time:      09029.78647547
Element set:     266
Inclination:      097.9625 deg
RA of node:       094.6702 deg
Eccentricity:    0.0016893
Arg of perigee:   120.2833 deg
Mean anomaly:     240.0055 deg
Mean motion:   14.81539307 rev/day
Decay rate:        6.7e-07 rev/day^2
Epoch rev:            4095
Checksum:              319

Satellite: AAUSAT2
Catalog number: 32788
Epoch time:      09029.83317857
Element set:     267
Inclination:      097.9619 deg
RA of node:       094.7536 deg
Eccentricity:    0.0016521
Arg of perigee:   120.9675 deg
Mean anomaly:     239.3137 deg
Mean motion:   14.81657858 rev/day
Decay rate:       2.10e-06 rev/day^2
Epoch rev:            4096
Checksum:              339

Satellite: DO-64
Catalog number: 32789
Epoch time:      09028.77088360
Element set:    0281
Inclination:      097.9664 deg
RA of node:       093.7831 deg
Eccentricity:    0.0016490
Arg of perigee:   122.7165 deg
Mean anomaly:     237.5637 deg
Mean motion:   14.81600376 rev/day
Decay rate:       2.63e-06 rev/day^2
Epoch rev:           04080
Checksum:              326

Satellite: CO-66
Catalog number: 32791
Epoch time:      09028.59811337
Element set:    0268
Inclination:      097.9642 deg
RA of node:       093.5171 deg
Eccentricity:    0.0016959
Arg of perigee:   121.9060 deg
Mean anomaly:     238.3814 deg
Mean motion:   14.81379363 rev/day
Decay rate:        3.1e-07 rev/day^2
Epoch rev:           04074
Checksum:              322

Satellite: RS-30
Catalog number: 32953
Epoch time:      09028.86210718
Element set:     218
Inclination:      082.5042 deg
RA of node:       343.2496 deg
Eccentricity:    0.0019903
Arg of perigee:   119.7486 deg
Mean anomaly:     240.5578 deg
Mean motion:   12.42999639 rev/day
Decay rate:        1.0e-07 rev/day^2
Epoch rev:            3108
Checksum:              307

/EX



_______________________________________________
Via the Keps mailing list courtesy of AMSAT-NA
http://amsat.org/mailman/listinfo/keps

--- ViaMAIL!/WC v1.60d
 * Origin: Chowdanet (401-724-4410) telnet://chowdanet.com  (1:323/120)